Location: Newark
(13.8117°N, 3.6025°W)
Time: 12:42:50
(UTC+00:00)

A-11 Canister half - Visible Passes

Search period start: 12 August 2020 00:00
Search period end: 22 August 2020 00:00
Orbit: 1527 x 1682 km, 47.3° (Epoch: 11 August)

Date Brightness Start Highest point End Pass type
(mag) Time Alt. Az. Time Alt. Az. Time Alt. Az.
12 Aug 9.9 20:36:46 10° WNW 20:45:33 39° SW 20:50:23 24° S visible
13 Aug 9.9 20:14:56 10° WNW 20:23:56 42° SW 20:30:32 18° S visible
14 Aug 9.8 19:53:08 10° WNW 20:02:18 45° SW 20:10:44 12° SSE visible
15 Aug 9.8 19:31:21 10° WNW 19:40:40 48° SW 19:49:43 10° SSE visible
16 Aug 9.8 19:09:34 10° NW 19:19:02 52° SW 19:28:14 10° SSE visible
17 Aug 9.7 18:47:49 10° NW 18:57:24 56° SW 19:06:42 10° SSE visible
19 Aug 11.1 05:23:43 10° SSE 05:29:31 17° SE 05:35:22 10° E visible
20 Aug 11.1 05:02:39 10° SSE 05:07:52 16° SE 05:13:08 10° E visible
20 Aug 11.3 19:55:01 10° WSW 19:57:01 11° SW 19:59:01 10° SW visible
21 Aug 11.1 04:41:42 10° SSE 04:46:14 14° SE 04:50:48 10° E visible
21 Aug 11.3 19:31:57 10° WSW 19:35:21 12° SW 19:38:45 10° SSW visible
